This demonstration page uses our WeatherBlox Daily Observations layout. Learn more.

Left ArrowRight Arrow

39.12711, -84.51439

Hourly Observations for December 15, 2018

Temp ( °F °C ) Dew Point ( °F °C ) Humidity (%) Winds ( mph kmh ) Pressure ( in mb ) Visibility ( mi km ) Precip ( " mm )
12:34 am 00:34 Cloudy with Light Rain 49 9.4 47 8.3 93 93 Calm 30.06 1018 10 16 0.01 0.25
12:53 am 00:53 Cloudy with Light Rain 49 9.4 47 8.3 93 93 Calm 30.07 1018 3 5 0.02 0.51
1:03 am 01:03 Cloudy with Light Rain 48 8.9 47 8.3 96 96 N 5 7 30.06 1018 2 3 0.02 0.51
1:22 am 01:22 Cloudy with Light Rain 48 8.9 47 8.3 96 96 NE 7 11 30.03 1017 2 3 0.04 1.02
1:34 am 01:34 Cloudy with Light Rain 48 8.9 47 8.3 96 96 NNE 8 13 30.03 1017 3 5 0.05 1.27
1:53 am 01:53 Cloudy with Light Rain 48 8.9 47 8.3 96 96 NNE 8 13 30.01 1016 5 8 0.06 1.52
2:53 am 02:53 Cloudy 49 9.4 46 7.8 90 90 NNE 6 9 30.01 1016 10 16 0.01 0.25
3:53 am 03:53 Cloudy with Light Rain 49 9.4 46 7.8 90 90 NNE 12 19 29.97 1015 10 16 0.00 0.03
4:08 am 04:08 Cloudy 49 9.4 46 7.8 90 90 NNE 7 11 29.97 1015 10 16 0.00 0.03
4:53 am 04:53 Cloudy 49 9.4 47 8.3 93 93 NNE 8 13 29.95 1014 10 16 0.00 0.03
5:53 am 05:53 Cloudy 51 10.6 48 8.9 89 89 N 10 17 29.90 1013 10 16 0.00 0.00
6:07 am 06:07 Cloudy 51 10.6 48 8.9 89 89 N 10 17 29.94 1014 10 16 0.00 0.00
6:53 am 06:53 Cloudy with Light Rain 50 10 48 8.9 93 93 N 5 7 29.92 1013 6 10 0.02 0.51
7:24 am 07:24 Cloudy with Rain 50 10 48 8.9 93 93 N 5 7 29.94 1014 4 6 0.04 1.02
7:53 am 07:53 Cloudy with Light Rain 50 10 48 8.9 93 93 N 3 6 29.94 1014 7 11 0.04 1.02
8:53 am 08:53 Cloudy with Light Rain 49 9.4 47 8.3 93 93 Calm 29.95 1014 3 5 0.09 2.29
9:53 am 09:53 Cloudy with Rain 50 10 48 8.9 93 93 NNE 9 15 29.96 1014 2 3 0.08 2.03
10:03 am 10:03 Cloudy with Heavy Rain 50 10 48 8.9 93 93 NNE 12 19 29.94 1014 2 2 0.05 1.27
10:37 am 10:37 Cloudy with Light Rain 49 9.4 47 8.3 93 93 NNE 9 15 29.97 1015 2 3 0.15 3.81
10:53 am 10:53 Cloudy with Light Rain 49 9.4 47 8.3 93 93 NNE 8 13 29.96 1015 2 3 0.17 4.32
11:19 am 11:19 Cloudy with Heavy Rain 49 9.4 47 8.3 93 93 NNE 8 13 29.94 1014 1 2 0.09 2.29
11:53 am 11:53 Cloudy with Rain 49 9.4 47 8.3 93 93 NNE 9 15 29.94 1014 2 3 0.20 5.08
12:18 pm 12:18 Cloudy with Light Rain 48 8.9 46 7.8 93 93 NNE 10 17 29.94 1014 3 4 0.04 1.02
12:53 pm 12:53 Cloudy with Rain 48 8.9 46 7.8 93 93 NNE 10 17 29.92 1013 2 3 0.13 3.30
1:10 pm 13:10 Cloudy with Light Rain 48 8.9 46 7.8 93 93 NNE 9 15 29.94 1014 3 4 0.01 0.25
1:53 pm 13:53 Cloudy with Light Rain 48 8.9 46 7.8 93 93 N 7 11 29.91 1013 4 6 0.07 1.78
2:53 pm 14:53 Cloudy with Light Rain 48 8.9 46 7.8 93 93 NNE 6 9 29.90 1013 4 6 0.00 0.03
3:53 pm 15:53 Cloudy with Light Rain 48 8.9 45 7.2 89 89 NNE 9 15 29.88 1012 5 8 0.06 1.52
4:53 pm 16:53 Cloudy with Light Rain 48 8.9 46 7.8 93 93 ENE 3 6 29.88 1012 7 11 0.04 1.02
5:53 pm 17:53 Cloudy 48 8.9 46 7.8 93 93 SW 3 6 29.88 1012 9 14 0.02 0.51
6:53 pm 18:53 Cloudy with Mist and Fog 47 8.3 46 7.8 97 97 Calm 29.90 1012 6 10 0.00 0.00
7:53 pm 19:53 Cloudy with Mist and Fog 47 8.3 46 7.8 97 97 Calm 29.91 1013 4 6 0.00 0.00
8:09 pm 20:09 Cloudy with Mist and Fog 47 8.3 46 7.8 97 97 Calm 29.94 1014 3 4 0.00 0.00
8:53 pm 20:53 Cloudy with Mist and Fog 48 8.9 47 8.3 96 96 NW 5 7 29.91 1013 3 5 0.00 0.00
9:53 pm 21:53 Cloudy with Mist and Fog 49 9.4 47 8.3 93 93 N 5 7 29.92 1013 4 6 0.00 0.00
10:53 pm 22:53 Cloudy 45 7.2 43 6.1 93 93 N 9 15 29.94 1014 7 11 0.00 0.00
11:53 pm 23:53 Cloudy with Mist and Fog 44 6.7 42 5.6 93 93 N 7 11 29.94 1014 5 8 0.00 0.00

Powered by AerisWeather